• In Belarus
  • List of Countries
  • For 7 days
  • Water Temperature
  • Satellite Maps
  • Weather Map
  • Weather Widgets
  • user-avatar
    Login

    Hourly Weather Vratsa

    Today, 18 July, Wednesday

    Time Temperature Precipitation Wind Pressure Humidity
    00:00 +17°C° 0 mm 3 mps 704 mmHg 82%
    01:00 +16°C° 0 mm 3 mps 704 mmHg 83%
    02:00 +17°C° 0 mm 3 mps 704 mmHg 82%
    03:00 +16°C° 0 mm 3 mps 704 mmHg 83%
    04:00 +16°C° 0 mm 3 mps 704 mmHg 84%
    05:00 +16°C° 0 mm 3 mps 704 mmHg 85%
    06:00 +17°C° 0 mm 4 mps 704 mmHg 78%
    07:00 +19°C° 0 mm 4 mps 704 mmHg 72%
    08:00 +20°C° 0 mm 5 mps 704 mmHg 66%
    09:00 +21°C° 0 mm 6 mps 704 mmHg 62%
    10:00 +22°C° 0 mm 6 mps 704 mmHg 57%
    11:00 +23°C° 0 mm 7 mps 704 mmHg 53%
    12:00 +23°C° 0.2 mm 7 mps 704 mmHg 55%
    13:00 +23°C° 0.2 mm 6 mps 704 mmHg 56%
    14:00 +23°C° 0.2 mm 6 mps 704 mmHg 57%
    15:00 +23°C° 0.3 mm 7 mps 704 mmHg 60%
    16:00 +23°C° 0.3 mm 7 mps 704 mmHg 62%
    17:00 +22°C° 0.3 mm 7 mps 704 mmHg 64%
    18:00 +21°C° 0.1 mm 6 mps 704 mmHg 67%
    19:00 +20°C° 0.1 mm 6 mps 704 mmHg 71%
    20:00 +19°C° 0.1 mm 5 mps 704 mmHg 74%
    21:00 +17°C° 0 mm 5 mps 704 mmHg 75%
    22:00 +17°C° 0 mm 5 mps 704 mmHg 76%
    23:00 +16°C° 0 mm 5 mps 704 mmHg 77%

    Tomorrow, 19 July, Thursday

    Time Temperature Precipitation Wind Pressure Humidity
    00:00 +16°C° 0 mm 5 mps 704 mmHg 78%
    01:00 +15°C° 0 mm 4 mps 704 mmHg 78%
    02:00 +15°C° 0 mm 4 mps 704 mmHg 78%
    03:00 +15°C° 0.1 mm 4 mps 703 mmHg 78%
    04:00 +15°C° 0.1 mm 4 mps 703 mmHg 78%
    05:00 +15°C° 0.1 mm 4 mps 703 mmHg 78%
    06:00 +17°C° 0.1 mm 4 mps 703 mmHg 77%
    07:00 +17°C° 0.1 mm 4 mps 703 mmHg 77%
    08:00 +18°C° 0.1 mm 4 mps 704 mmHg 76%
    09:00 +19°C° 0 mm 4 mps 704 mmHg 72%
    10:00 +20°C° 0 mm 5 mps 704 mmHg 69%
    11:00 +22°C° 0 mm 5 mps 705 mmHg 66%
    12:00 +22°C° 0.2 mm 5 mps 705 mmHg 64%
    13:00 +23°C° 0.2 mm 5 mps 705 mmHg 62%
    14:00 +25°C° 0.2 mm 5 mps 705 mmHg 61%
    15:00 +25°C° 0.1 mm 5 mps 705 mmHg 60%
    16:00 +25°C° 0.1 mm 5 mps 705 mmHg 60%
    17:00 +25°C° 0.1 mm 5 mps 705 mmHg 59%
    18:00 +22°C° 0 mm 5 mps 705 mmHg 65%
    19:00 +21°C° 0 mm 4 mps 705 mmHg 71%
    20:00 +19°C° 0 mm 3 mps 705 mmHg 76%
    21:00 +18°C° 0 mm 3 mps 705 mmHg 79%
    22:00 +18°C° 0 mm 3 mps 705 mmHg 81%
    23:00 +17°C° 0 mm 3 mps 705 mmHg 83%

    Day after tomorrow, 20 July, Friday

    Time Temperature Precipitation Wind Pressure Humidity
    00:00 +17°C° 0 mm 3 mps 705 mmHg 84%
    01:00 +17°C° 0 mm 3 mps 705 mmHg 84%
    02:00 +17°C° 0 mm 3 mps 705 mmHg 85%
    03:00 +17°C° 0 mm 3 mps 705 mmHg 86%
    04:00 +17°C° 0 mm 3 mps 705 mmHg 86%
    05:00 +17°C° 0 mm 3 mps 705 mmHg 87%
    06:00 +18°C° 0 mm 3 mps 706 mmHg 82%
    07:00 +20°C° 0 mm 3 mps 706 mmHg 76%
    08:00 +22°C° 0 mm 4 mps 706 mmHg 71%
    09:00 +23°C° 0 mm 4 mps 706 mmHg 66%
    10:00 +25°C° 0 mm 4 mps 707 mmHg 62%
    11:00 +26°C° 0 mm 5 mps 707 mmHg 57%
    12:00 +27°C° 0 mm 5 mps 707 mmHg 54%
    13:00 +27°C° 0 mm 5 mps 707 mmHg 52%
    14:00 +28°C° 0 mm 5 mps 706 mmHg 50%
    15:00 +28°C° 0 mm 5 mps 706 mmHg 50%
    16:00 +28°C° 0 mm 4 mps 706 mmHg 51%
    17:00 +28°C° 0 mm 4 mps 706 mmHg 51%
    18:00 +26°C° 0 mm 4 mps 706 mmHg 58%
    19:00 +24°C° 0 mm 3 mps 706 mmHg 65%
    20:00 +21°C° 0 mm 2 mps 706 mmHg 72%
    21:00 +21°C° 0 mm 3 mps 706 mmHg 75%
    22:00 +20°C° 0 mm 3 mps 706 mmHg 79%
    23:00 +19°C° 0 mm 3 mps 706 mmHg 82%

    21 July, Saturday

    Time Temperature Precipitation Wind Pressure Humidity
    00:00 +18°C° 0 mm 2 mps 706 mmHg 83%
    01:00 +18°C° 0 mm 2 mps 706 mmHg 84%
    02:00 +18°C° 0 mm 2 mps 706 mmHg 84%
    03:00 +17°C° 0 mm 2 mps 706 mmHg 84%
    04:00 +17°C° 0 mm 2 mps 706 mmHg 84%
    05:00 +17°C° 0 mm 2 mps 706 mmHg 84%
    06:00 +19°C° 0 mm 2 mps 706 mmHg 76%
    07:00 +21°C° 0 mm 3 mps 707 mmHg 69%
    08:00 +22°C° 0 mm 3 mps 707 mmHg 61%
    09:00 +25°C° 0 mm 3 mps 707 mmHg 55%
    10:00 +27°C° 0 mm 3 mps 707 mmHg 49%
    11:00 +28°C° 0 mm 3 mps 707 mmHg 43%
    12:00 +29°C° 0 mm 3 mps 707 mmHg 40%
    13:00 +30°C° 0 mm 3 mps 707 mmHg 37%
    14:00 +31°C° 0 mm 3 mps 707 mmHg 33%
    15:00 +31°C° 0 mm 3 mps 706 mmHg 33%
    16:00 +31°C° 0 mm 3 mps 706 mmHg 33%
    17:00 +31°C° 0 mm 3 mps 706 mmHg 32%
    18:00 +28°C° 0 mm 2 mps 706 mmHg 38%
    19:00 +26°C° 0 mm 2 mps 706 mmHg 44%
    20:00 +23°C° 0 mm 1 mps 705 mmHg 50%
    21:00 +22°C° 0 mm 1 mps 705 mmHg 51%
    22:00 +21°C° 0 mm 1 mps 705 mmHg 53%
    23:00 +20°C° 0 mm 2 mps 705 mmHg 54%

    22 July, Sunday

    Time Temperature Precipitation Wind Pressure Humidity
    00:00 +19°C° 0 mm 2 mps 705 mmHg 55%
    01:00 +19°C° 0 mm 2 mps 705 mmHg 56%
    02:00 +18°C° 0 mm 2 mps 705 mmHg 57%
    03:00 +18°C° 0 mm 2 mps 705 mmHg 58%
    04:00 +18°C° 0 mm 2 mps 705 mmHg 58%
    05:00 +17°C° 0 mm 2 mps 705 mmHg 59%
    06:00 +20°C° 0 mm 2 mps 705 mmHg 56%
    07:00 +23°C° 0 mm 1 mps 705 mmHg 52%
    08:00 +25°C° 0 mm 1 mps 706 mmHg 49%
    09:00 +27°C° 0 mm 1 mps 706 mmHg 44%
    10:00 +29°C° 0 mm 1 mps 706 mmHg 40%
    11:00 +31°C° 0 mm 1 mps 706 mmHg 35%
    12:00 +32°C° 0 mm 2 mps 705 mmHg 33%
    13:00 +32°C° 0 mm 2 mps 705 mmHg 30%
    14:00 +34°C° 0 mm 2 mps 704 mmHg 28%
    15:00 +34°C° 0 mm 2 mps 704 mmHg 29%
    16:00 +34°C° 0 mm 2 mps 704 mmHg 29%
    17:00 +33°C° 0 mm 1 mps 704 mmHg 30%
    18:00 +31°C° 0 mm 2 mps 703 mmHg 37%
    19:00 +28°C° 0 mm 2 mps 703 mmHg 43%
    20:00 +25°C° 0 mm 2 mps 702 mmHg 50%
    21:00 +24°C° 0.1 mm 2 mps 702 mmHg 54%
    22:00 +23°C° 0.1 mm 2 mps 703 mmHg 57%
    23:00 +21°C° 0.1 mm 2 mps 703 mmHg 60%

    23 July, Monday

    Time Temperature Precipitation Wind Pressure Humidity
    00:00 +21°C° 0.1 mm 2 mps 702 mmHg 63%
    01:00 +20°C° 0.1 mm 2 mps 702 mmHg 66%
    02:00 +20°C° 0.1 mm 2 mps 702 mmHg 69%
    03:00 +19°C° 0.1 mm 2 mps 702 mmHg 75%
    04:00 +19°C° 0.1 mm 2 mps 701 mmHg 80%
    05:00 +19°C° 0.1 mm 1 mps 701 mmHg 86%
    06:00 +20°C° 0 mm 1 mps 701 mmHg 81%
    07:00 +22°C° 0 mm 1 mps 702 mmHg 75%
    08:00 +23°C° 0 mm 1 mps 702 mmHg 70%
    09:00 +24°C° 0.5 mm 2 mps 702 mmHg 66%
    10:00 +26°C° 0.5 mm 2 mps 702 mmHg 61%
    11:00 +27°C° 0.5 mm 2 mps 702 mmHg 57%
    12:00 +27°C° 1.1 mm 2 mps 702 mmHg 57%
    13:00 +28°C° 1.1 mm 2 mps 702 mmHg 57%
    14:00 +28°C° 1.1 mm 2 mps 702 mmHg 57%
    15:00 +27°C° 1.3 mm 2 mps 701 mmHg 61%
    16:00 +26°C° 1.3 mm 2 mps 701 mmHg 65%
    17:00 +25°C° 1.3 mm 2 mps 701 mmHg 69%
    18:00 +24°C° 1.7 mm 2 mps 701 mmHg 74%
    19:00 +23°C° 1.7 mm 2 mps 702 mmHg 79%
    20:00 +20°C° 1.7 mm 2 mps 702 mmHg 84%
    21:00 +20°C° 1.1 mm 2 mps 702 mmHg 85%
    22:00 +19°C° 1.1 mm 2 mps 702 mmHg 86%
    23:00 +20°C° 1.1 mm 1 mps 702 mmHg 87%
    Show more